OPS 4682 DEB, 20031

Orbit data source: Space-Track

OPS 4682 DEB, 20031 is space debris in LEO originally from a launch on Sat, 03 Apr 1965 UTC launched from the Air Force Western Test Range (AFWTR). Debris objects in space refer to the collection of defunct objects orbiting the Earth. Examples of debris include non-operational satellites, rocket bodies, and fragments generated from explosions, collisions, or faulty payload assembly.

Loading next visibility...
Identifier
20031, 1965-027BB
Orbit
LEO
Country
Flag of USUS
Related business
Manufacturer
Unknown
Mission
Spacecraft
Bus & Motor
Unknown
Mass
Unknown
Launch date (UTC)
1965-04-03 (61 years ago)
Launch vehicle
Unknown
Launch site
Air Force Western Test Range (AFWTR)
Object type
Payload
Rocket body
Debris
Shape & HBR
Unknown shape, 0.1 m
Radar Cross Section
Medium (>0.1 m² and <1 m²)

Expand to show TLE details & history
Last TLE update: 17 hours ago

TLE from 17 hours ago
0 OPS 4682 DEB
1 20031U 65027BB  26264.55330265  .00000149  00000-0  48128-3 0  9995
2 20031  90.2352   1.3280 0034628 159.2842 215.2662 12.97978195779710
Epoch: 2026-09-21T13:16Z
TLE epoch observation values (Epoch: 2026-09-21T13:16:45.348Z)
Latitude
14.29232°
Longitude
161.64795°
Altitude
1,293.841 km
Speed
7.2 km/s
True Right ascension
00h 05m 04s
True Declination
14° 12' 58"
Sunlit
Object was in full shadow at epoch
Visualization orbit readout
Latitude
Unknown
Longitude
Unknown
Altitude
Unknown
Speed
Unknown
Apparent Right ascension
Unknown
Apparent Declination
Unknown
Sunlit
N/A
Visualization observer readout
Local Sidereal Time
22:51:29
Azimuth
Unknown
Elevation
Unknown
Doppler factor
Unknown
Orbital elements
Apogee altitude
1,293.623 km
Perigee altitude
1,240.674 km
Semi-major axis
7,645.285 km
Eccentricity
0.00346
Inclination
90.2352°
RAAN
1.328°
Arg. of periapsis
159.2842°
True anomaly
215.0379°
Mean anomaly
215.2662°
Eccentric anomaly
215.15197°
Mean motion
3.24678 °/min
Orbital period
110.88 mins
BSTAR
0.00048128
Loading maneuver chart data...
Computing Atmospheric mass density...
Loading historical data...
Loading historical data...
Loading historical data...
Loading historical data...
Loading historical data...
Loading historical data...
Loading historical data...

Documentation

Showing up to 5 results
|